FW3814 Weather Reports


time (UTC)temp
C
wind
direction
speed
KPH
gust
KPH
rain 1hr
cm
rain 24hr
cm
rain mn
cm
humidity
%
barometer
mb
20221203064509 5 354 8.0 11.3 0.00 0.03 0.03 89 1017.7
20221203064009 5 350 8.0 11.3 0.00 0.03 0.03 89 1017.7
20221203063509 5 346 8.0 11.3 0.00 0.03 0.03 89 1017.6
20221203063009 5 346 8.0 11.3 0.00 0.03 0.03 89 1017.7
20221203062508 5 342 8.0 11.3 0.00 0.03 0.03 89 1017.8
20221203061508 5 357 8.0 12.9 0.00 0.03 0.03 89 1017.8
20221203061009 5 356 6.4 9.7 0.00 0.03 0.03 89 1017.8
20221203060508 5 345 4.8 6.4 0.00 0.03 0.03 88 1017.7
20221203055508 5 334 6.4 8.0 0.00 0.03 0.03 88 1018.0
20221203055009 5 346 8.0 12.9 0.00 0.03 0.03 88 1017.9
20221203054508 5 346 8.0 12.9 0.00 0.03 0.03 88 1017.8
20221203054009 5 333 6.4 9.7 0.00 0.03 0.03 88 1017.9
20221203053509 5 330 6.4 8.0 0.00 0.03 0.03 88 1017.9
20221203053009 5 344 6.4 8.0 0.00 0.03 0.03 88 1017.9
20221203052508 4 340 4.8 6.4 0.03 0.03 0.03 88 1018.1
20221203051509 4 340 6.4 8.0 0.03 0.03 0.03 88 1018.0
20221203051008 4 348 6.4 6.4 0.03 0.03 0.03 88 1018.1
20221203050509 4 1 6.4 6.4 0.03 0.03 0.03 88 1018.0
20221203050008 4 348 6.4 6.4 0.03 0.03 0.03 88 1018.1
20221203045008 4 348 4.8 6.4 0.03 0.03 0.03 88 1018.2
20221203044509 4 351 6.4 6.4 0.03 0.03 0.03 88 1018.0
20221203044008 4 345 6.4 6.4 0.03 0.03 0.03 88 1018.1
20221203043509 4 344 6.4 6.4 0.03 0.03 0.03 88 1018.1
20221203043008 4 351 6.4 6.4 0.03 0.03 0.03 88 1018.1
20221203042509 4 338 6.4 8.0 0.00 0.00 0.00 88 1018.0
20221203042008 4 331 6.4 8.0 0.00 0.00 0.00 88 1018.1
20221203041009 4 340 6.4 8.0 0.00 0.00 0.00 88 1018.1
20221203040508 5 341 6.4 6.4 0.00 0.00 0.00 88 1018.2
20221203035009 5 341 8.0 9.7 0.00 0.00 0.00 88 1018.2
20221203034508 5 348 6.4 8.0 0.00 0.00 0.00 88 1018.3
20221203033508 5 320 8.0 9.7 0.00 0.00 0.00 88 1018.3
20221203033008 5 327 8.0 11.3 0.00 0.00 0.00 88 1018.2
20221203032509 5 334 6.4 11.3 0.00 0.00 0.00 88 1018.4
20221203032009 5 339 6.4 9.7 0.00 0.00 0.00 88 1018.5
20221203031016 4 3 6.4 9.7 0.00 0.00 0.00 88 1018.3
20221203030509 4 355 6.4 8.0 0.00 0.00 0.00 88 1018.3
20221203030008 4 354 6.4 8.0 0.00 0.00 0.00 88 1018.2
20221203025509 4 358 4.8 6.4 0.00 0.00 0.00 88 1018.4
20221203024509 4 335 4.8 6.4 0.00 0.00 0.00 88 1018.4
20221203023508 4 1 6.4 8.0 0.00 0.00 0.00 87 1018.5
20221203023009 4 1 6.4 8.0 0.00 0.00 0.00 87 1018.4
20221203022509 4 353 6.4 6.4 0.00 0.00 0.00 87 1018.3
20221203021508 4 330 6.4 8.0 0.00 0.00 0.00 87 1018.3
20221203021009 4 350 6.4 8.0 0.00 0.00 0.00 87 1018.6
20221203020508 4 357 6.4 8.0 0.00 0.00 0.00 87 1018.5
20221203020009 4 357 6.4 8.0 0.00 0.00 0.00 87 1018.6
20221203015508 4 350 6.4 6.4 0.00 0.00 0.00 87 1018.9
20221203015008 4 339 6.4 6.4 0.00 0.00 0.00 87 1018.8
20221203014008 4 339 6.4 6.4 0.00 0.00 0.00 86 1018.7
20221203013509 4 349 4.8 6.4 0.00 0.00 0.00 86 1018.7
20221203013009 4 339 6.4 8.0 0.00 0.00 0.00 86 1018.8
20221203012508 4 328 6.4 8.0 0.00 0.00 0.00 86 1018.7
20221203012009 4 328 8.0 11.3 0.00 0.00 0.00 86 1018.8
20221203011508 4 341 8.0 11.3 0.00 0.00 0.00 86 1018.8
20221203011009 4 7 8.0 9.7 0.00 0.00 0.00 86 1018.8
20221203010508 4 23 8.0 9.7 0.00 0.00 0.00 86 1018.7
20221203010009 4 23 8.0 9.7 0.00 0.00 0.00 86 1018.7
20221203005508 4 23 8.0 8.0 0.00 0.00 0.00 86 1018.6
20221203005008 5 23 8.0 8.0 0.00 0.00 0.00 86 1018.8
20221203004008 5 23 8.0 9.7 0.00 0.00 0.00 86 1019.0
20221203003508 5 23 6.4 6.4 0.00 0.00 0.00 85 1019.1
20221203003009 5 23 6.4 6.4 0.00 0.00 0.00 85 1019.0
20221203002508 5 25 6.4 6.4 0.00 0.00 0.00 85 1019.1
20221203002008 5 46 6.4 6.4 0.00 0.00 0.00 85 1019.1
20221203001508 5 68 4.8 6.4 0.00 0.00 0.00 85 1019.0
20221203001008 5 68 4.8 6.4 0.00 0.00 0.00 85 1019.3
20221203000508 5 68 3.2 4.8 0.00 0.00 0.00 85 1019.2
20221202235509 5 68 3.2 6.4 0.00 0.00 0.00 85 1019.3
20221202234508 5 69 4.8 6.4 0.00 0.00 0.00 85 1019.3
20221202234011 5 88 4.8 6.4 0.00 0.00 0.00 84 1019.3
20221202233508 4 123 4.8 4.8 0.00 0.00 0.00 84 1019.3
20221202233009 5 135 4.8 6.4 0.00 0.00 0.00 84 1019.4
20221202232008 5 135 3.2 3.2 0.00 0.00 0.00 84 1019.2
20221202231007 5 135 1.6 3.2 0.00 0.00 0.00 84 1019.3
20221202230508 5 135 1.6 3.2 0.00 0.00 0.00 84 1019.4
20221202230010 5 135 1.6 3.2 0.00 0.00 0.00 84 1019.4
20221202225507 5 135 0.0 3.2 0.00 0.00 0.00 84 1019.5
20221202225008 5 135 1.6 3.2 0.00 0.00 0.00 84 1019.6
20221202224508 5 135 1.6 3.2 0.00 0.00 0.00 84 1019.6
20221202224008 5 135 1.6 3.2 0.00 0.00 0.00 84 1019.7
20221202223508 5 135 0.0 3.2 0.00 0.00 0.00 84 1019.6
20221202223008 5 135 1.6 3.2 0.00 0.00 0.00 83 1019.6
20221202222507 5 135 3.2 4.8 0.00 0.00 0.00 83 1019.4
20221202222008 5 135 3.2 4.8 0.00 0.00 0.00 83 1019.5
20221202221508 5 135 0.0 3.2 0.00 0.00 0.00 83 1019.6
20221202221009 5 0 0.0 0.0 0.00 0.00 0.00 83 1019.5
20221202220508 5 135 0.0 3.2 0.00 0.00 0.00 83 1019.4
20221202220008 5 135 1.6 3.2 0.00 0.00 0.00 83 1019.3
20221202215508 5 135 0.0 3.2 0.00 0.00 0.00 83 1019.3
20221202215008 5 135 1.6 3.2 0.00 0.00 0.00 83 1019.3
20221202214507 5 135 1.6 3.2 0.00 0.00 0.00 83 1019.1
20221202214008 5 135 0.0 1.6 0.00 0.00 0.00 83 1019.2
20221202213508 5 0 0.0 0.0 0.00 0.00 0.00 83 1019.3
20221202213008 5 135 0.0 3.2 0.00 0.00 0.00 83 1019.2
20221202212508 5 135 1.6 3.2 0.00 0.00 0.00 82 1019.4
20221202212008 5 135 1.6 3.2 0.00 0.00 0.00 82 1019.3
20221202211508 5 135 0.0 3.2 0.00 0.00 0.00 82 1019.2
20221202210508 5 0 0.0 0.0 0.00 0.00 0.00 82 1019.0
20221202210008 5 135 0.0 1.6 0.00 0.00 0.00 82 1019.0
20221202205507 5 135 0.0 1.6 0.00 0.00 0.00 82 1019.1
20221202205008 5 0 0.0 0.0 0.00 0.00 0.00 82 1019.1
20221202204008 5 0 0.0 0.0 0.00 0.00 0.00 82 1019.0
20221202203507 5 0 0.0 0.0 0.00 0.00 0.00 82 1019.0
20221202203008 5 135 0.0 1.6 0.00 0.00 0.00 82 1019.0
20221202202507 5 135 0.0 1.6 0.00 0.00 0.00 82 1018.9
20221202202008 5 135 0.0 3.2 0.00 0.00 0.00 82 1019.2
20221202201008 5 135 1.6 3.2 0.00 0.00 0.00 82 1019.0
20221202200507 5 135 0.0 3.2 0.00 0.00 0.00 82 1019.0
20221202200008 5 135 0.0 3.2 0.00 0.00 0.00 82 1018.9
20221202195508 5 135 1.6 3.2 0.00 0.00 0.00 82 1019.1
20221202195008 5 135 0.0 3.2 0.00 0.00 0.00 82 1018.9
20221202194508 5 0 0.0 0.0 0.00 0.00 0.00 82 1018.9
20221202194007 5 0 0.0 0.0 0.00 0.00 0.00 82 1018.9
20221202193008 5 0 0.0 0.0 0.00 0.00 0.00 82 1018.8
20221202192508 5 0 0.0 0.0 0.00 0.00 0.00 82 1019.0
20221202192008 5 0 0.0 0.0 0.00 0.00 0.00 82 1019.0
20221202191508 5 135 0.0 3.2 0.00 0.00 0.00 82 1018.8
20221202191007 5 135 1.6 3.2 0.00 0.00 0.00 82 1018.8
20221202190508 5 135 1.6 3.2 0.00 0.00 0.00 81 1019.0
20221202190008 5 135 0.0 3.2 0.00 0.00 0.00 81 1018.9
20221202185508 5 135 0.0 1.6 0.00 0.00 0.00 81 1019.0
20221202185007 5 135 1.6 3.2 0.00 0.00 0.00 81 1018.9
20221202184508 5 135 1.6 3.2 0.00 0.00 0.00 81 1018.9
20221202184008 5 135 3.2 3.2 0.00 0.00 0.00 81 1018.8
20221202183508 5 135 3.2 3.2 0.00 0.00 0.00 81 1019.0
20221202183008 5 135 3.2 3.2 0.00 0.00 0.00 81 1018.9
20221202182508 5 135 1.6 3.2 0.00 0.00 0.00 81 1018.9
20221202182007 5 135 1.6 3.2 0.00 0.00 0.00 81 1018.8
20221202181508 5 135 1.6 3.2 0.00 0.00 0.00 81 1018.8
20221202181007 5 135 1.6 3.2 0.00 0.00 0.00 81 1018.7
20221202180508 5 135 1.6 3.2 0.00 0.00 0.00 80 1018.7
20221202180007 5 135 3.2 3.2 0.00 0.00 0.00 80 1018.8
20221202175508 5 135 1.6 3.2 0.00 0.00 0.00 80 1018.7
20221202175007 5 135 1.6 3.2 0.00 0.00 0.00 80 1018.9
20221202174508 5 135 1.6 3.2 0.00 0.00 0.00 80 1018.8
20221202174007 5 135 1.6 3.2 0.00 0.00 0.00 80 1018.7
20221202173008 5 135 0.0 3.2 0.00 0.00 0.00 80 1018.6
20221202172507 5 135 1.6 3.2 0.00 0.00 0.00 80 1018.6
20221202172008 5 135 1.6 3.2 0.00 0.00 0.00 80 1018.5
20221202171507 5 135 1.6 3.2 0.00 0.00 0.00 80 1018.5
20221202171008 5 135 0.0 3.2 0.00 0.00 0.00 80 1018.5
20221202170507 5 135 0.0 3.2 0.00 0.00 0.00 80 1018.5
20221202170008 5 135 1.6 4.8 0.00 0.00 0.00 80 1018.5
20221202165009 6 135 3.2 4.8 0.00 0.00 0.00 80 1018.4
20221202164507 6 135 3.2 4.8 0.00 0.00 0.00 80 1018.5
20221202164008 6 135 3.2 4.8 0.00 0.00 0.00 80 1018.4
20221202163507 6 135 3.2 3.2 0.00 0.00 0.00 80 1018.5
20221202163008 6 135 3.2 3.2 0.00 0.00 0.00 80 1018.5
20221202162507 6 135 3.2 3.2 0.00 0.00 0.00 80 1018.4
20221202162008 6 135 3.2 3.2 0.00 0.00 0.00 80 1018.4
20221202161507 6 135 3.2 4.8 0.00 0.00 0.00 79 1018.4
20221202161008 6 135 3.2 4.8 0.00 0.00 0.00 79 1018.3
20221202160508 6 135 4.8 4.8 0.00 0.00 0.00 79 1018.4
20221202160007 6 135 4.8 4.8 0.00 0.00 0.00 79 1018.1
20221202155508 6 135 4.8 4.8 0.00 0.00 0.00 79 1018.2
20221202155007 6 135 3.2 4.8 0.00 0.00 0.00 79 1018.2
20221202154508 6 135 3.2 3.2 0.00 0.00 0.00 79 1018.3
20221202154007 6 135 3.2 3.2 0.00 0.00 0.00 79 1018.3
20221202153508 6 135 3.2 3.2 0.00 0.00 0.00 79 1018.1
20221202153008 6 135 3.2 3.2 0.00 0.00 0.00 79 1018.2
20221202152507 6 135 3.2 4.8 0.00 0.00 0.00 79 1018.3
20221202152008 6 135 3.2 4.8 0.00 0.00 0.00 79 1018.0
20221202151507 6 135 3.2 4.8 0.00 0.00 0.00 79 1018.0
20221202151007 6 135 3.2 4.8 0.00 0.00 0.00 79 1018.1
20221202150508 6 135 4.8 6.4 0.00 0.00 0.00 79 1018.0
20221202150007 6 135 4.8 6.4 0.00 0.00 0.00 79 1018.1
20221202145508 6 135 4.8 6.4 0.00 0.00 0.00 79 1017.9
20221202145007 6 135 4.8 6.4 0.00 0.00 0.00 79 1018.1
20221202144508 6 135 3.2 6.4 0.00 0.00 0.00 79 1018.1
20221202144007 6 135 4.8 6.4 0.00 0.00 0.00 79 1018.1
20221202143508 6 135 4.8 6.4 0.00 0.00 0.00 78 1017.9
20221202143007 6 135 4.8 6.4 0.00 0.00 0.00 79 1018.1
20221202142507 6 135 4.8 6.4 0.00 0.00 0.00 79 1018.0
20221202142007 6 135 4.8 4.8 0.00 0.00 0.00 78 1018.0
20221202141007 6 135 4.8 4.8 0.00 0.00 0.00 79 1018.1
20221202140507 6 135 4.8 6.4 0.00 0.00 0.00 79 1018.0
20221202140007 6 135 4.8 6.4 0.00 0.00 0.00 79 1017.8
20221202135507 6 135 4.8 6.4 0.00 0.00 0.00 79 1017.9
20221202135007 6 135 4.8 6.4 0.00 0.00 0.00 79 1017.9
20221202134507 6 135 3.2 6.4 0.00 0.00 0.00 79 1017.8
20221202134007 6 135 3.2 4.8 0.00 0.00 0.00 79 1017.7
20221202133507 6 135 4.8 6.4 0.00 0.00 0.00 79 1017.9
20221202132507 6 135 3.2 4.8 0.00 0.00 0.00 79 1017.8
20221202132007 6 135 3.2 4.8 0.00 0.00 0.00 79 1018.0
20221202131507 6 135 3.2 4.8 0.00 0.00 0.00 80 1018.0
20221202131007 6 135 4.8 6.4 0.00 0.00 0.00 80 1018.0
20221202130507 6 135 4.8 6.4 0.00 0.00 0.00 80 1017.9
20221202130007 6 135 3.2 6.4 0.00 0.00 0.00 80 1018.1
20221202125507 6 135 4.8 6.4 0.00 0.00 0.00 79 1017.9
20221202125008 6 135 6.4 6.4 0.00 0.00 0.00 80 1018.1
20221202124007 6 135 3.2 6.4 0.00 0.00 0.00 80 1018.1
20221202123507 6 135 3.2 3.2 0.00 0.00 0.00 80 1018.3
20221202122508 6 135 3.2 4.8 0.00 0.00 0.00 80 1018.3
20221202122007 6 135 4.8 6.4 0.00 0.00 0.00 80 1018.2
20221202121507 6 135 4.8 6.4 0.00 0.00 0.00 80 1018.3
20221202121007 6 135 6.4 6.4 0.00 0.00 0.00 80 1018.3
20221202120507 6 135 6.4 6.4 0.00 0.00 0.00 80 1018.3
20221202120008 6 135 4.8 6.4 0.00 0.00 0.00 80 1018.4
20221202115507 6 135 4.8 6.4 0.00 0.00 0.00 80 1018.6
20221202115007 6 135 4.8 6.4 0.00 0.00 0.00 80 1018.5
20221202114508 6 135 3.2 6.4 0.00 0.00 0.00 80 1018.6
20221202113508 6 135 4.8 6.4 0.00 0.00 0.00 80 1018.6
20221202113007 6 135 4.8 6.4 0.00 0.00 0.00 80 1018.7
20221202112507 6 135 4.8 6.4 0.00 0.00 0.00 80 1018.5
20221202112007 6 127 4.8 6.4 0.00 0.00 0.00 80 1018.7
20221202111507 6 128 4.8 8.0 0.00 0.00 0.00 80 1018.7
20221202111007 6 135 6.4 8.0 0.00 0.00 0.00 80 1018.7
20221202110508 6 125 6.4 8.0 0.00 0.00 0.00 80 1018.7
20221202105507 6 118 4.8 8.0 0.00 0.00 0.00 80 1018.8
20221202105007 6 135 4.8 8.0 0.00 0.00 0.00 80 1018.8
20221202104508 6 135 6.4 9.7 0.00 0.00 0.00 80 1018.8
20221202104007 6 130 6.4 9.7 0.00 0.00 0.00 80 1019.0
20221202103007 6 135 6.4 8.0 0.00 0.00 0.00 80 1018.9
20221202102507 6 134 4.8 6.4 0.00 0.00 0.00 80 1019.0
20221202102007 6 101 4.8 6.4 0.00 0.00 0.00 80 1018.9
20221202101507 6 70 6.4 11.3 0.00 0.00 0.00 80 1019.0
20221202101007 5 81 8.0 11.3 0.00 0.00 0.00 80 1019.1
20221202100508 5 112 6.4 11.3 0.00 0.00 0.00 80 1019.0
20221202100007 5 135 6.4 8.0 0.00 0.00 0.00 80 1019.0
20221202095507 5 135 6.4 8.0 0.00 0.00 0.00 80 1019.1
20221202095007 5 135 6.4 9.7 0.00 0.00 0.00 80 1019.1
20221202094508 5 135 6.4 9.7 0.00 0.00 0.00 80 1019.3
20221202094007 5 135 6.4 6.4 0.00 0.00 0.00 80 1019.2
20221202093507 5 135 6.4 9.7 0.00 0.00 0.00 80 1019.3
20221202093007 5 135 6.4 9.7 0.00 0.00 0.00 80 1019.2
20221202092507 5 135 4.8 6.4 0.00 0.00 0.00 80 1019.3
20221202092007 5 135 3.2 6.4 0.00 0.00 0.00 80 1019.2
20221202091507 5 135 3.2 6.4 0.00 0.00 0.00 80 1019.2
20221202090007 5 135 4.8 6.4 0.00 0.00 0.00 81 1019.1
20221202085507 5 135 4.8 4.8 0.00 0.00 0.00 81 1019.1
20221202084508 5 135 4.8 6.4 0.00 0.00 0.00 81 1019.0
20221202083507 5 135 4.8 6.4 0.00 0.00 0.00 81 1019.1
20221202083007 5 135 4.8 6.4 0.00 0.00 0.00 81 1019.1
20221202082507 5 135 4.8 6.4 0.00 0.00 0.00 81 1019.0
20221202082007 5 135 4.8 6.4 0.00 0.00 0.00 81 1019.0
20221202081507 5 135 4.8 6.4 0.00 0.00 0.00 81 1019.2
20221202081007 5 135 4.8 6.4 0.00 0.00 0.00 81 1018.9
20221202080507 5 135 4.8 6.4 0.00 0.00 0.00 81 1018.8
20221202075507 5 135 4.8 6.4 0.00 0.00 0.00 81 1019.0
20221202075007 5 135 4.8 6.4 0.00 0.00 0.00 81 1018.9
20221202074507 5 135 6.4 8.0 0.00 0.00 0.00 81 1018.9
20221202073507 5 135 6.4 6.4 0.00 0.00 0.00 81 1019.0
20221202073007 5 135 6.4 8.0 0.00 0.00 0.00 81 1018.9
20221202072507 5 135 6.4 8.0 0.00 0.00 0.00 81 1019.1
20221202072007 5 135 6.4 8.0 0.00 0.00 0.00 81 1019.0
20221202071507 5 135 6.4 8.0 0.00 0.00 0.00 81 1019.0
20221202071007 5 135 6.4 8.0 0.00 0.00 0.00 81 1019.0
20221202070507 5 135 6.4 6.4 0.00 0.00 0.00 81 1018.8
20221202070007 5 135 6.4 8.0 0.00 0.00 0.00 81 1018.8
20221202065507 5 135 6.4 8.0 0.00 0.00 0.00 81 1018.7